Regional Weather Roundup
Issued by NWS

Home | Current Version | Previous Version | Text Only | Print | Product List | Glossary On
Versions: 1 2 3 4 5 6 7 8 9 10 11 12 13 14 15 16 17 18 19 20 21 22 23 24 25 26 27 28 29 30 31 32 33 34 35 36 37 38 39 40 41 42 43 44 45 46 47 48 49 50
342
ASUS44 KFWD 291210
RWRTX
NORTH TEXAS HOURLY WEATHER ROUNDUP
NATIONAL WEATHER SERVICE FORT WORTH TX
700 AM CDT MON AUG 29 2016

NOTE: "FAIR" INDICATES FEW OR NO CLOUDS BELOW 12,000 FEET WITH NO
SIGNIFICANT WEATHER AND/OR OBSTRUCTIONS TO VISIBILITY.

TXZ118-119-291300-
DALLAS/FORT WORTH METROPLEX

CITY           SKY/WX    TMP DP  RH WIND       PRES   REMARKS
DFW AIRPORT    PTCLDY    74  69  85 NE5       30.05R
6HR MIN TEMP:  74; 6HR MAX TEMP:  78;

DALLAS LOVE    PTCLDY    75  72  90 E3        30.06R
6HR MIN TEMP:  75; 6HR MAX TEMP:  78;

FTW MEACHAM    CLEAR     76  70  82 NE5       30.06R
6HR MIN TEMP:  75; 6HR MAX TEMP:  79;

DAL-EXECUTIVE  CLEAR     74  72  93 NE5       30.05R
6HR MIN TEMP:  73; 6HR MAX TEMP:  76;

FTW-ALLIANCE   PTCLDY    69  67  93 CALM      30.06R
6HR MIN TEMP:  68; 6HR MAX TEMP:  76;

FTW-SPINKS     PTCLDY    72  70  94 CALM      30.07S
ARLINGTON      PTCLDY    74  70  87 E5        30.06R
6HR MIN TEMP:  73; 6HR MAX TEMP:  76;

GRAND PRAIRIE  CLEAR     73  72  94 E3        30.07R
MESQUITE       CLEAR     72  72 100 CALM      30.05R
LANCASTER      PTCLDY    72  70  92 CALM      30.06R FOG
6HR MIN TEMP:  72; 6HR MAX TEMP:  74;

$$

TXZ091>094-102>105-117-120-121-131>134-291300-
NORTH CENTRAL TEXAS

CITY           SKY/WX    TMP DP  RH WIND       PRES   REMARKS
SHRMAN/DENISON MOCLDY    71  71 100 CALM      30.10R
6HR MIN TEMP:  70; 6HR MAX TEMP:  75;

GAINESVILLE      N/A     68  67  96 CALM      30.11R
6HR MIN TEMP:  68; 6HR MAX TEMP:  73;

BOWIE          CLEAR     70  69  97 E3        30.09R
6HR MIN TEMP:  70; 6HR MAX TEMP:  75;

BRIDGEPORT     CLEAR     69  69 100 CALM      30.10R
6HR MIN TEMP:  68; 6HR MAX TEMP:  74;

DECATUR        CLEAR     70  69  99 CALM      30.09R
6HR MIN TEMP:  70; 6HR MAX TEMP:  74;

DENTON         CLEAR     71  69  93 NE6       30.07R
6HR MIN TEMP:  71; 6HR MAX TEMP:  78;

MCKINNEY       CLEAR     71  70  96 N5        30.07R
6HR MIN TEMP:  71; 6HR MAX TEMP:  74;

GREENVILLE     CLEAR     72  70  94 N3        30.07R
ROCKWALL       FOG       73  72  98 E5        30.05R VSB<1/4
6HR MIN TEMP:  72; 6HR MAX TEMP:  75;

TERRELL        PTCLDY    73  71  93 NE5       30.05R
6HR MIN TEMP:  72; 6HR MAX TEMP:  74;

WAXAHACHIE     CLEAR     71  71 100 CALM      30.07R FOG
6HR MIN TEMP:  70; 6HR MAX TEMP:  72;

CLEBURNE       MOCLDY    72  72 100 CALM      30.08R
GRANBURY       CLEAR     71  68  90 CALM      30.09R
6HR MIN TEMP:  71; 6HR MAX TEMP:  78;

$$

TXZ083>090-098>101-113>116-127>130-139>142-154-155-291300-
WESTERN NORTH TEXAS

CITY           SKY/WX    TMP DP  RH WIND       PRES   REMARKS
WICHITA FALLS  CLEAR     69  66  90 E5        30.08R
6HR MIN TEMP:  69; 6HR MAX TEMP:  74;

WF-KICKAPOO    CLEAR     71  67  87 SE5       30.10R
6HR MIN TEMP:  71; 6HR MAX TEMP:  76;

VERNON         MOCLDY    69  65  85 N3        30.11R
6HR MIN TEMP:  69; 6HR MAX TEMP:  92;

ABILENE        CLEAR     69  67  93 CALM      30.10R
6HR MIN TEMP:  68; 6HR MAX TEMP:  73;

CISCO          PTCLDY    70  68  94 E5        30.10R
BRECKENRIDGE   CLEAR     70  69  96 CALM      30.08R
6HR MIN TEMP:  70; 6HR MAX TEMP:  75;

GRAHAM         CLOUDY    71  71 100 CALM      30.08R
6HR MIN TEMP:  70; 6HR MAX TEMP:  73;

MINERAL WELLS  CLEAR     69  68  96 CALM      30.07R
6HR MIN TEMP:  69; 6HR MAX TEMP:  75;

STEPHENVILLE   CLEAR     69  67  92 CALM      30.11R
6HR MIN TEMP:  69; 6HR MAX TEMP:  74;

COMANCHE       MOCLDY    69  69 100 CALM      30.08R
6HR MIN TEMP:  69; 6HR MAX TEMP:  73;

BROWNWOOD      MOCLDY    68  68 100 E5        30.08R
COLEMAN        CLOUDY    69  67  95 CALM      30.09R
6HR MIN TEMP:  69; 6HR MAX TEMP:  73;

$$

TXZ143>147-156>162-174-175-291300-
CENTRAL TEXAS

CITY           SKY/WX    TMP DP  RH WIND       PRES   REMARKS
WACO           PTCLDY    72  72 100 N6        30.04R
6HR MIN TEMP:  71; 6HR MAX TEMP:  74;

WACO-TSTC      CLEAR     72  72 100 N3        30.04
WACO-MCGREGOR  PTCLDY    71  70  96 N5        30.05R
6HR MIN TEMP:  71; 6HR MAX TEMP:  75;

HILLSBORO      CLEAR     71  69  96 NE7       30.05R
6HR MIN TEMP:  70; 6HR MAX TEMP:  72;

CORSICANA      PTCLDY    74  70  87 NE3       30.05R
6HR MIN TEMP:  73; 6HR MAX TEMP:  74;

MEXIA          PTCLDY    71  70  96 NW6       30.03R
6HR MIN TEMP:  71; 6HR MAX TEMP:  72;

HEARNE         CLOUDY    72  71  95 MISG      30.01S
6HR MIN TEMP:  72; 6HR MAX TEMP:  73;

CAMERON        MOCLDY    72  71  97 N3        30.02R
6HR MIN TEMP:  71; 6HR MAX TEMP:  74;

TEMPLE         CLEAR     70  70 100 N5        30.04R
6HR MIN TEMP:  70; 6HR MAX TEMP:  73;

KILLEEN        MOCLDY    70  69  97 N6        30.05R
6HR MIN TEMP:  70; 6HR MAX TEMP:  75;

KILLEEN-SKYLRK PTCLDY    71  70  96 N6        30.05R
6HR MIN TEMP:  70; 6HR MAX TEMP:  75;

FORT HOOD      MOCLDY    70  68  94 NE7       30.03R
6HR MIN TEMP:  69; 6HR MAX TEMP:  73;

GATESVILLE     CLOUDY    72  72 100 CALM      30.08R
HAMILTON       CLEAR     69  69 100 CALM      30.08R
6HR MIN TEMP:  69; 6HR MAX TEMP:  74;

LAMPASAS       CLOUDY    72  71  97 NE3       30.06R
6HR MIN TEMP:  72; 6HR MAX TEMP:  76;

$$

TXZ095>097-106>112-122>126-135>138-148>153-164>167-291300-
EAST TEXAS

CITY           SKY/WX    TMP DP  RH WIND       PRES   REMARKS
PARIS          CLEAR     72  70  94 N7        30.07R
6HR MIN TEMP:  72; 6HR MAX TEMP:  73;

SULPHUR SPRNGS CLEAR     72  70  96 NE3       30.08R
6HR MIN TEMP:  72; 6HR MAX TEMP:  73;

MOUNT PLEASANT CLEAR     72  72 100 N5        30.06R
6HR MIN TEMP:  72; 6HR MAX TEMP:  74;

GILMER         CLEAR     71  71  98 CALM      30.04R
6HR MIN TEMP:  71; 6HR MAX TEMP:  73;

TYLER          CLEAR     73  72  96 NE5       30.03R
6HR MIN TEMP:  73; 6HR MAX TEMP:  74;

LONGVIEW       MOCLDY    73  73 100 NE3       30.02R
6HR MIN TEMP:  72; 6HR MAX TEMP:  73;

MARSHALL       CLOUDY    70  68  93 CALM      30.05R
6HR MIN TEMP:  70; 6HR MAX TEMP:  70;

ATHENS         CLEAR     72  72 100 N3        30.02R
PALESTINE      CLEAR     73  72  98 N6        30.02R
JACKSONVILLE   FOG       71  71 100 N3        30.05R VSB 3/4
HENDERSON      CLOUDY    73  73 100 CALM      30.04R
6HR MIN TEMP:  72; 6HR MAX TEMP:  73;

CENTER         CLOUDY    75  73  96 CALM      30.03R
6HR MIN TEMP:  73; 6HR MAX TEMP:  75;

NACOGDOCHES    CLOUDY   N/A N/A N/A NE3       29.99R
LUFKIN         CLEAR     72  71  97 NE7       29.99R
6HR MIN TEMP:  71; 6HR MAX TEMP:  72;

$$

SUPPLEMENTAL OBSERVATIONS (CENTRAL)

CITY           SKY/WX    TMP DP  RH WIND       PRES   REMARKS
CADDO GRASSLND   N/A     72  68  88 N1          N/A
PAT MAYSE LAKE   N/A     72  70  94 N5          N/A
GREENVILLE       N/A     72  70  94 N2          N/A
CEDAR HILL       N/A     72  70  94 E1          N/A
MCGREGOR         N/A     70  68  94 N2          N/A
$$

SUPPLEMENTAL OBSERVATIONS (WEST)

CITY           SKY/WX    TMP DP  RH WIND       PRES   REMARKS
MILLERS CREEK    N/A     70  66  88 N1          N/A
LBJ GRASSLAND    N/A     72  70  94 CALM        N/A
HAMBY            N/A     66  63  88 SW1         N/A
IVIE RESERVOIR   N/A     70  66  88 NE1         N/A
COLORADO BEND    N/A     72  68  88 CALM        N/A
$$

SUPPLEMENTAL OBSERVATIONS (EAST)

CC1F1C2F2C3F3C4F4C5F5C6F6C7F7C8F8C9!



USA.gov is the U.S. government's official web portal to all federal, state and local government web resources and services.